Year,Month,Day,Hour,Minute,Value (Times are PST for temperature in C)
2016,09,20,11,13,14.30
2016,09,20,11,14,14.30
2016,09,20,11,15,14.30
2016,09,20,11,16,14.30
2016,09,20,11,17,14.30
2016,09,20,11,18,14.40
2016,09,20,11,19,14.40
2016,09,20,11,20,14.50
2016,09,20,11,21,14.60
2016,09,20,11,22,14.70
2016,09,20,11,23,14.70
2016,09,20,11,24,14.80
2016,09,20,11,25,14.80
2016,09,20,11,26,14.90
2016,09,20,11,27,15.00
2016,09,20,11,28,15.10
2016,09,20,11,29,15.20
2016,09,20,11,30,15.20
2016,09,20,11,31,15.20
2016,09,20,11,32,15.20
2016,09,20,11,33,15.20
2016,09,20,11,34,15.10
2016,09,20,11,35,15.00
2016,09,20,11,36,15.00
2016,09,20,11,37,15.00
2016,09,20,11,38,15.00
2016,09,20,11,39,14.90
2016,09,20,11,40,14.80
2016,09,20,11,41,14.80
2016,09,20,11,42,14.90
2016,09,20,11,43,14.90
2016,09,20,11,44,15.00
2016,09,20,11,45,15.10
2016,09,20,11,46,15.10
2016,09,20,11,47,15.20
2016,09,20,11,48,15.20
2016,09,20,11,49,15.20
2016,09,20,11,50,15.20
2016,09,20,11,51,15.20
2016,09,20,11,52,15.20
2016,09,20,11,53,15.20
2016,09,20,11,54,15.20
2016,09,20,11,55,15.20
2016,09,20,11,56,15.20
2016,09,20,11,57,15.30
2016,09,20,11,58,15.30
2016,09,20,11,59,15.30
2016,09,20,12,00,15.30
2016,09,20,12,01,15.30
2016,09,20,12,02,15.30
2016,09,20,12,03,15.20
2016,09,20,12,04,15.20
2016,09,20,12,05,15.20
2016,09,20,12,06,15.30
2016,09,20,12,07,15.30
2016,09,20,12,08,15.30
2016,09,20,12,09,15.40
2016,09,20,12,10,15.40
2016,09,20,12,11,15.40
2016,09,20,12,12,15.40
2016,09,20,12,13,15.30
2016,09,20,12,14,15.40
2016,09,20,12,15,15.40
2016,09,20,12,16,15.50
2016,09,20,12,17,15.50
2016,09,20,12,18,15.60
2016,09,20,12,19,15.60
2016,09,20,12,20,15.60
2016,09,20,12,21,15.40
2016,09,20,12,22,15.30
2016,09,20,12,23,15.30
2016,09,20,12,24,15.30
2016,09,20,12,25,15.30
2016,09,20,12,26,15.40
2016,09,20,12,27,15.40
2016,09,20,12,28,15.50
2016,09,20,12,29,15.60
2016,09,20,12,30,15.60
2016,09,20,12,31,15.70
2016,09,20,12,32,15.70
2016,09,20,12,33,15.70
2016,09,20,12,34,15.70
2016,09,20,12,35,15.70
2016,09,20,12,36,15.70
2016,09,20,12,37,15.70
2016,09,20,12,38,15.80
2016,09,20,12,39,15.90
2016,09,20,12,40,15.90
2016,09,20,12,41,16.00
2016,09,20,12,42,16.00
2016,09,20,12,43,16.10
2016,09,20,12,44,16.10
2016,09,20,12,45,16.10
2016,09,20,12,46,16.10
2016,09,20,12,47,16.20
2016,09,20,12,48,16.30
2016,09,20,12,49,16.30
2016,09,20,12,50,16.30
2016,09,20,12,51,16.40
2016,09,20,12,52,16.40
2016,09,20,12,53,16.40
2016,09,20,12,54,16.50
2016,09,20,12,55,16.50
2016,09,20,12,56,16.40
2016,09,20,12,57,16.40
2016,09,20,12,58,16.40
2016,09,20,12,59,16.30
2016,09,20,13,00,16.30
2016,09,20,13,01,16.30
2016,09,20,13,02,16.30
2016,09,20,13,03,16.30
2016,09,20,13,04,16.30
2016,09,20,13,05,16.30
2016,09,20,13,06,16.30
2016,09,20,13,07,16.30
2016,09,20,13,08,16.30
2016,09,20,13,09,16.30
2016,09,20,13,10,16.30
2016,09,20,13,11,16.20
2016,09,20,13,12,16.20
2016,09,20,13,13,16.10
2016,09,20,13,14,16.10
2016,09,20,13,15,16.10
2016,09,20,13,16,16.20
2016,09,20,13,17,16.30
2016,09,20,13,18,16.30
2016,09,20,13,19,16.20
2016,09,20,13,20,16.20
2016,09,20,13,21,16.10
2016,09,20,13,22,16.00
2016,09,20,13,23,16.00
2016,09,20,13,24,16.00
2016,09,20,13,25,15.90
2016,09,20,13,26,15.90
2016,09,20,13,27,15.90
2016,09,20,13,28,15.90
2016,09,20,13,29,15.90
2016,09,20,13,30,16.00
2016,09,20,13,31,16.00
2016,09,20,13,32,16.10
2016,09,20,13,33,16.20
2016,09,20,13,34,16.30
2016,09,20,13,35,16.40
2016,09,20,13,36,16.50
2016,09,20,13,37,16.50
2016,09,20,13,38,16.60
2016,09,20,13,39,16.60
2016,09,20,13,40,16.50
2016,09,20,13,41,16.50
2016,09,20,13,42,16.40
2016,09,20,13,43,16.40
2016,09,20,13,44,16.40
2016,09,20,13,45,16.30
2016,09,20,13,46,16.30
2016,09,20,13,47,16.20
2016,09,20,13,48,16.20
2016,09,20,13,49,16.20
2016,09,20,13,50,16.20
2016,09,20,13,51,16.20
2016,09,20,13,52,16.20
2016,09,20,13,53,16.20
2016,09,20,13,54,16.30
2016,09,20,13,55,16.20
2016,09,20,13,56,16.20
2016,09,20,13,57,16.10
2016,09,20,13,58,16.20
2016,09,20,13,59,16.20
2016,09,20,14,00,16.20
2016,09,20,14,01,16.30
2016,09,20,14,02,16.40
2016,09,20,14,03,16.40
2016,09,20,14,04,16.50
2016,09,20,14,05,16.60
2016,09,20,14,06,16.70
2016,09,20,14,07,16.70
2016,09,20,14,08,16.80
2016,09,20,14,09,16.80
2016,09,20,14,10,16.80
2016,09,20,14,11,16.80
2016,09,20,14,12,16.80
2016,09,20,14,13,16.80
2016,09,20,14,14,16.80
2016,09,20,14,15,16.80
2016,09,20,14,16,16.80
2016,09,20,14,17,16.90
2016,09,20,14,18,16.90
2016,09,20,14,19,17.00
2016,09,20,14,20,17.10
2016,09,20,14,21,17.20
2016,09,20,14,22,17.20
2016,09,20,14,23,17.10
2016,09,20,14,24,17.00
2016,09,20,14,25,16.80
2016,09,20,14,26,16.70
2016,09,20,14,27,16.60
2016,09,20,14,28,16.60
2016,09,20,14,29,16.60
2016,09,20,14,30,16.60
2016,09,20,14,31,16.70
2016,09,20,14,32,16.80
2016,09,20,14,33,16.80
2016,09,20,14,34,16.90
2016,09,20,14,35,17.00
2016,09,20,14,36,17.10
2016,09,20,14,37,17.00
2016,09,20,14,38,17.10
2016,09,20,14,39,17.10
2016,09,20,14,40,17.10
2016,09,20,14,41,17.20
2016,09,20,14,42,17.20
2016,09,20,14,43,17.20
2016,09,20,14,44,17.20
2016,09,20,14,45,17.20
2016,09,20,14,46,17.30
2016,09,20,14,47,17.30
2016,09,20,14,48,17.30
2016,09,20,14,49,17.40
2016,09,20,14,50,17.40
2016,09,20,14,51,17.40
2016,09,20,14,52,17.40
2016,09,20,14,53,17.40
2016,09,20,14,54,17.30
2016,09,20,14,55,17.30
2016,09,20,14,56,17.30
2016,09,20,14,57,17.30
2016,09,20,14,58,17.30
2016,09,20,14,59,17.20
2016,09,20,15,00,17.20
2016,09,20,15,01,17.20
2016,09,20,15,02,17.10
2016,09,20,15,03,17.10
2016,09,20,15,04,17.10
2016,09,20,15,05,17.10
2016,09,20,15,06,17.10
2016,09,20,15,07,17.10
2016,09,20,15,08,17.10
2016,09,20,15,09,17.10
2016,09,20,15,10,17.10
2016,09,20,15,11,17.10
2016,09,20,15,12,17.10
2016,09,20,15,13,17.10
2016,09,20,15,14,17.10
2016,09,20,15,15,17.20
2016,09,20,15,16,17.20
2016,09,20,15,17,17.20
2016,09,20,15,18,17.30
2016,09,20,15,19,17.30
2016,09,20,15,20,17.30
2016,09,20,15,21,17.30
2016,09,20,15,22,17.30
2016,09,20,15,23,17.30
2016,09,20,15,24,17.30
2016,09,20,15,25,17.20
2016,09,20,15,26,17.20
2016,09,20,15,27,17.20
2016,09,20,15,28,17.20
2016,09,20,15,29,17.20
2016,09,20,15,30,17.20
2016,09,20,15,31,17.20
2016,09,20,15,32,17.20
2016,09,20,15,33,17.20
2016,09,20,15,34,17.20
2016,09,20,15,35,17.20
2016,09,20,15,36,17.20
2016,09,20,15,37,17.20
2016,09,20,15,38,17.20
2016,09,20,15,39,17.20
2016,09,20,15,40,17.20
2016,09,20,15,41,17.20
2016,09,20,15,42,17.10
2016,09,20,15,43,17.20
2016,09,20,15,44,17.20
2016,09,20,15,45,17.20
2016,09,20,15,46,17.20
2016,09,20,15,47,17.30
2016,09,20,15,48,17.30
2016,09,20,15,49,17.40
2016,09,20,15,50,17.40
2016,09,20,15,51,17.40
2016,09,20,15,52,17.50
2016,09,20,15,53,17.50
2016,09,20,15,54,17.40
2016,09,20,15,55,17.40
2016,09,20,15,56,17.30
2016,09,20,15,57,17.30
2016,09,20,15,58,17.30
2016,09,20,15,59,17.30
2016,09,20,16,00,17.30
2016,09,20,16,01,17.30
2016,09,20,16,02,17.30
2016,09,20,16,03,17.30
2016,09,20,16,04,17.30
2016,09,20,16,05,17.40
2016,09,20,16,06,17.40
2016,09,20,16,07,17.40
2016,09,20,16,08,17.40
2016,09,20,16,09,17.40
2016,09,20,16,10,17.30
2016,09,20,16,11,17.40
2016,09,20,16,12,17.40
2016,09,20,16,13,17.40
2016,09,20,16,14,17.40
2016,09,20,16,15,17.40
2016,09,20,16,16,17.40
2016,09,20,16,17,17.30
2016,09,20,16,18,17.30
2016,09,20,16,19,17.20
2016,09,20,16,20,17.20
2016,09,20,16,21,17.10
2016,09,20,16,22,17.10
2016,09,20,16,23,17.10
2016,09,20,16,24,17.10
2016,09,20,16,25,17.00
2016,09,20,16,26,17.00
2016,09,20,16,27,17.00
2016,09,20,16,28,16.90
2016,09,20,16,29,17.00
2016,09,20,16,30,17.00
2016,09,20,16,31,17.10
2016,09,20,16,32,17.10
2016,09,20,16,33,17.10
2016,09,20,16,34,17.00
2016,09,20,16,35,17.00
2016,09,20,16,36,17.00
2016,09,20,16,37,17.10
2016,09,20,16,38,17.10
2016,09,20,16,39,17.20
2016,09,20,16,40,17.30
2016,09,20,16,41,17.30
2016,09,20,16,42,17.20
2016,09,20,16,43,17.20
2016,09,20,16,44,17.20
2016,09,20,16,45,17.20
2016,09,20,16,46,17.20
2016,09,20,16,47,17.20
2016,09,20,16,48,17.20
2016,09,20,16,49,17.20
2016,09,20,16,50,17.20
2016,09,20,16,51,17.20
2016,09,20,16,52,17.20
2016,09,20,16,53,17.20
2016,09,20,16,54,17.10
2016,09,20,16,55,17.10
2016,09,20,16,56,17.00
2016,09,20,16,57,17.00
2016,09,20,16,58,16.90
2016,09,20,16,59,16.90
2016,09,20,17,00,16.90
2016,09,20,17,01,16.90
2016,09,20,17,02,16.90
2016,09,20,17,03,16.90
2016,09,20,17,04,16.90
2016,09,20,17,05,16.90
2016,09,20,17,06,16.90
2016,09,20,17,07,16.90
2016,09,20,17,08,16.90
2016,09,20,17,09,16.90
2016,09,20,17,10,16.90
2016,09,20,17,11,16.90
2016,09,20,17,12,16.90
2016,09,20,17,13,16.80
2016,09,20,17,14,16.80
2016,09,20,17,15,16.80
2016,09,20,17,16,16.80
2016,09,20,17,17,16.80
2016,09,20,17,18,16.80
2016,09,20,17,19,16.80
2016,09,20,17,20,16.80
2016,09,20,17,21,16.80
2016,09,20,17,22,16.80
2016,09,20,17,23,16.90
2016,09,20,17,24,16.90
2016,09,20,17,25,17.00
2016,09,20,17,26,16.90
2016,09,20,17,27,16.90
2016,09,20,17,28,16.90
2016,09,20,17,29,16.80
2016,09,20,17,30,16.80
2016,09,20,17,31,16.80
2016,09,20,17,32,16.70
2016,09,20,17,33,16.70
2016,09,20,17,34,16.70
2016,09,20,17,35,16.60
2016,09,20,17,36,16.60
2016,09,20,17,37,16.60
2016,09,20,17,38,16.60
2016,09,20,17,39,16.50
2016,09,20,17,40,16.50
2016,09,20,17,41,16.50
2016,09,20,17,42,16.50
2016,09,20,17,43,16.50
2016,09,20,17,44,16.50
2016,09,20,17,45,16.50
2016,09,20,17,46,16.50
2016,09,20,17,47,16.50
2016,09,20,17,48,16.50
2016,09,20,17,49,16.50
2016,09,20,17,50,16.50
2016,09,20,17,51,16.50
2016,09,20,17,52,16.50
2016,09,20,17,53,16.50
2016,09,20,17,54,16.50
2016,09,20,17,55,16.50
2016,09,20,17,56,16.50
2016,09,20,17,57,16.50
2016,09,20,17,58,16.50
2016,09,20,17,59,16.50
2016,09,20,18,00,16.50
2016,09,20,18,01,16.50
2016,09,20,18,02,16.50
2016,09,20,18,03,16.50
2016,09,20,18,04,16.50
2016,09,20,18,05,16.40
2016,09,20,18,06,16.40
2016,09,20,18,07,16.40
2016,09,20,18,08,16.40
2016,09,20,18,09,16.40
2016,09,20,18,10,16.40
2016,09,20,18,11,16.40
2016,09,20,18,12,16.40
2016,09,20,18,13,16.30
2016,09,20,18,14,16.30
2016,09,20,18,15,16.30
2016,09,20,18,16,16.30
2016,09,20,18,17,16.30
2016,09,20,18,18,16.30
2016,09,20,18,19,16.30
2016,09,20,18,20,16.30
2016,09,20,18,21,16.20
2016,09,20,18,22,16.20
2016,09,20,18,23,16.20
2016,09,20,18,24,16.20
2016,09,20,18,25,16.20
2016,09,20,18,26,16.20
2016,09,20,18,27,16.10
2016,09,20,18,28,16.10
2016,09,20,18,29,16.10
2016,09,20,18,30,16.10
2016,09,20,18,31,16.10
2016,09,20,18,32,16.10
2016,09,20,18,33,16.00
2016,09,20,18,34,16.00
2016,09,20,18,35,16.00
2016,09,20,18,36,16.00
2016,09,20,18,37,15.90
2016,09,20,18,38,15.90
2016,09,20,18,39,15.90
2016,09,20,18,40,15.80
2016,09,20,18,41,15.80
2016,09,20,18,42,15.70
2016,09,20,18,43,15.70
2016,09,20,18,44,15.70
2016,09,20,18,45,15.70
2016,09,20,18,46,15.70
2016,09,20,18,47,15.70
2016,09,20,18,48,15.70
2016,09,20,18,49,15.70
2016,09,20,18,50,15.70
2016,09,20,18,51,15.70
2016,09,20,18,52,15.70
2016,09,20,18,53,15.70
2016,09,20,18,54,15.70
2016,09,20,18,55,15.70
2016,09,20,18,56,15.70
2016,09,20,18,57,15.70
2016,09,20,18,58,15.70
2016,09,20,18,59,15.70
